This demonstration page uses our WeatherBlox Daily Observations layout. Learn more.

Left ArrowRight Arrow

36.19886, -115.1175

Hourly Observations for September 23, 2021

Temp ( °F °C ) Dew Point ( °F °C ) Humidity (%) Winds ( mph kmh ) Pressure ( in mb ) Visibility ( mi km ) Precip ( " mm )
12:53 am 00:53 Clear 76 24.4 34 1.1 22 22 NW 3 6 29.89 1012 10 16 N/A
1:53 am 01:53 Clear 75 23.9 36 2.2 24 24 WNW 8 13 29.90 1012 10 16 N/A
2:53 am 02:53 Clear 74 23.3 37 2.8 26 26 NNW 7 11 29.89 1012 10 16 N/A
3:53 am 03:53 Clear 75 23.9 36 2.2 24 24 N N/A 29.89 1012 10 16 N/A
4:53 am 04:53 Clear 75 23.9 35 1.7 23 23 WNW 5 7 29.88 1012 10 16 N/A
5:53 am 05:53 Clear 73 22.8 37 2.8 27 27 NW 6 9 29.88 1012 10 16 N/A
6:53 am 06:53 Sunny 73 22.8 34 1.1 24 24 NNW 8 13 29.89 1012 10 16 N/A
7:53 am 07:53 Sunny 75 23.9 34 1.1 22 22 NW 8 13 29.91 1013 10 16 N/A
8:53 am 08:53 Sunny 82 27.8 31 -0.6 16 16 NNW 8 13 29.91 1013 10 16 N/A
9:53 am 09:53 Sunny 87 30.6 34 1.1 15 15 N N/A 29.92 1013 10 16 N/A
10:53 am 10:53 Sunny 89 31.7 36 2.2 15 15 E 6 9 29.92 1013 10 16 N/A
11:53 am 11:53 Sunny 91 32.8 36 2.2 14 14 undefined N/A 29.90 1013 10 16 N/A
12:53 pm 12:53 Sunny 92 33.3 37 2.8 14 14 SSE 6 9 29.88 1012 10 16 N/A
1:53 pm 13:53 Sunny 94 34.4 37 2.8 14 14 S 3 6 29.85 1011 10 16 N/A
2:53 pm 14:53 Sunny 95 35 39 3.9 14 14 N N/A 29.83 1010 10 16 N/A
3:53 pm 15:53 Sunny 96 35.6 40 4.4 14 14 ESE 5 7 29.81 1010 10 16 N/A
4:53 pm 16:53 Sunny 95 35 38 3.3 14 14 N N/A 29.81 1009 10 16 N/A
5:53 pm 17:53 Sunny 95 35 37 2.8 13 13 N N/A 29.81 1010 10 16 N/A
6:53 pm 18:53 Clear 92 33.3 38 3.3 15 15 ESE 3 6 29.81 1010 10 16 N/A
7:53 pm 19:53 Clear 90 32.2 39 3.9 17 17 ESE 6 9 29.83 1010 10 16 N/A
8:53 pm 20:53 Clear 89 31.7 46 7.8 23 23 SSW 7 11 29.84 1010 10 16 N/A
9:53 pm 21:53 Clear 85 29.4 40 4.4 20 20 NNW 7 11 29.85 1011 10 16 N/A
10:53 pm 22:53 Clear 82 27.8 40 4.4 22 22 NNW 6 9 29.85 1011 10 16 N/A
11:53 pm 23:53 Clear 82 27.8 39 3.9 22 22 NNE 6 9 29.87 1011 10 16 N/A

Powered by AerisWeather